Regional Weather Roundup
Issued by NWS

Home | Current Version | Previous Version | Graphics & Text | Print | Product List | Glossary On
Versions: 1 2 3 4 5 6 7 8 9 10 11 12 13 14 15 16 17 18 19 20 21 22 23 24 25 26 27 28 29 30 31 32 33 34 35 36 37 38 39 40 41 42 43 44 45 46 47 48 49 50
000
ASUS43 KLOT 041008
RWRIL

ILLINOIS REGIONAL WEATHER ROUNDUP
NATIONAL WEATHER SERVICE CHICAGO/ROMEOVILLE IL
500 AM CDT SAT JUL 04 2015

NOTE: "FAIR" INDICATES FEW OR NO CLOUDS BELOW 12,000 FEET WITH NO
SIGNIFICANT WEATHER AND/OR OBSTRUCTIONS TO VISIBILITY.

* THESE STATIONS ARE NOT UNDER NWS QUALITY CONTROL. THEY ALSO MAY NOT
  REPORT WEATHER SUCH AS PRECIPITATION OR FOG.

ILZ001-002-007-009-015-016-024-041100-
NORTHWEST ILLINOIS

CITY           SKY/WX    TMP DP  RH WIND       PRES   REMARKS
MOLINE         CLEAR     57  54  89 CALM      29.97S FOG
STERLING*        N/A     54  52  94 CALM      29.98S VSB 1/2
SAVANNA*       FOG       56  54  94 CALM      29.98R VSB 1/2
$$

ILZ003-004-008-010-011-017-018-041100-
NORTH CENTRAL ILLINOIS

CITY           SKY/WX    TMP DP  RH WIND       PRES   REMARKS
ROCKFORD       CLEAR     58  54  86 S3        29.98S
FREEPORT*      CLEAR     55  51  89 CALM      29.99S
ROCHELLE*      CLEAR     54  53  99 CALM      29.99R FOG
DE KALB*       CLEAR     56  54  92 CALM      29.98S
PERU*          CLEAR     60  57  91 NW3       29.98S
$$

ILZ005-006-012>014-019>023-041100-
NORTHEAST ILLINOIS

CITY           SKY/WX    TMP DP  RH WIND       PRES   REMARKS
CHICAGO-OHARE  CLEAR     60  54  80 W6        29.95S
CHICAGO-MIDWAY CLEAR     64  55  72 CALM      29.96S
AURORA         CLEAR     57  53  86 CALM      29.97S FOG
LANSING*       CLEAR     57  54  89 CALM      29.97R FOG
JOLIET*        CLEAR     57  56  97 CALM      29.97S FOG
WAUKEGAN       CLEAR     59  54  83 SW3       29.96R
DUPAGE AIRPORT CLEAR     57  54  89 CALM      29.96S
KANKAKEE*      CLEAR     58  57  97 CALM      29.98R FOG
WHEELING       CLEAR     57  53  86 CALM      29.97R
MORRIS*        CLEAR     58  56  93 CALM      29.93R FOG
ROMEOVILLE*    CLEAR     59  56  88 CALM      29.97S FOG
NORTHERLY ISL    N/A     66  54  65 W6          N/A
$$

LMZ740>746-041100-
SOUTHERN LAKE MICHIGAN

STATION/POSITION SKY/WX   TEMP    WIND        PRES    VSBY  WAVE
                          AIR SEA DIR/SP/G                  HT/PER
                          (F)     (DEG/KT/KT) (MB)    (MI)  (FT/S)
HARRISON CRIB              65     260/  7/  8   N/A
BURNHAM HARBOR             66     260/  8/  8   N/A
CALUMET HARBOR             62     230/  2/  3   N/A
BURNS HARBOR               62     220/  3/  4 1014.9S
MICHIGAN CITY              59     170/  3/  3   N/A
MICHIGAN CITY 6N           62 63  210/  4/  4   N/A           0
ST. JOSEPH                 60 62                N/A           0
$$

ILZ025>027-034>036-040-047-049-050-058-095>099-041100-
WEST-CENTRAL ILLINOIS

CITY           SKY/WX    TMP DP  RH WIND       PRES   REMARKS
QUINCY         CLEAR     63  59  87 NE3       29.96S
GALESBURG*     CLEAR     55  54  97 CALM      29.97S FOG
MACOMB*        CLEAR     57  56  99 CALM      29.99S
JACKSONVILLE*  CLEAR     62  61  96 CALM      29.95S FOG
PITTSFIELD*    CLEAR     63  61  93 CALM      29.97S
$$

ILZ028>032-037-038-041>044-048-051>054-059>061-041100-
CENTRAL ILLINOIS

CITY           SKY/WX    TMP DP  RH WIND       PRES   REMARKS
PONTIAC        CLEAR     57  57  99 CALM      29.98R FOG
BLOOMINGTON    CLEAR     62  58  87 N3        29.98S
DECATUR        CLEAR     58  56  93 CALM      29.96S
PEORIA         CLEAR     62  57  83 NE3       29.97S
LACON*         FOG       57  56  95 CALM      29.97R VSB 3/4
LINCOLN*       CLEAR     60  59  95 CALM      29.97S FOG
SPRINGFIELD    FOG       62  60  93 CALM      29.96S VSB 3/4
TAYLORVILLE    PTCLDY    57  57 100 N5        29.96S FOG
$$

ILZ033-039-045-046-055>057-062-063-041100-
EAST-CENTRAL ILLINOIS

CITY           SKY/WX    TMP DP  RH WIND       PRES   REMARKS
CHAMPAIGN      CLEAR     57  55  93 NW3       29.96S FOG
DANVILLE*      CLEAR     55  55  99 CALM      29.94R FOG
RANTOUL*       CLEAR     59  58  95 CALM      29.96S FOG
MATTOON        CLEAR     60  59  96 CALM      29.95R FOG
PARIS*           N/A     59  59  99 CALM      29.97R FOG
$$

ILZ079-100>102-041100-
SOUTHWEST ILLINOIS

CITY           SKY/WX    TMP DP  RH WIND       PRES   REMARKS
ALTON            N/A     62  62 100 CALM      29.95S FOG
BELLEVILLE     CLEAR     65  65 100 CALM      29.93R
CAHOKIA*       CLEAR     66  64  93 CALM      29.94S FOG
SPARTA*        CLEAR     65  65  97 CALM      29.95R FOG
$$

ILZ064>066-069>071-074>076-080>082-084>086-088>090-092>094-041100-
SOUTH-CENTRAL ILLINOIS

CITY           SKY/WX    TMP DP  RH WIND       PRES   REMARKS
CARBONDALE     CLEAR     68  66  93 CALM      29.93R FOG
CAIRO*         CLEAR     69  69 100 CALM      29.92R FOG
EFFINGHAM*     CLEAR     62  60  92 CALM      29.97R FOG
MARION         CLEAR     68  66  94 CALM      29.94R FOG
MT. VERNON     CLEAR     64  61  88 CALM      29.95R
CENTRALIA*     CLEAR     64  62  93 CALM      29.95R FOG
SALEM*         CLEAR     67  64  89 CALM      29.95S FOG
METROPOLIS*      N/A     67  67 100 CALM      29.92S FOG
$$

ILZ067-068-072-073-078-083-087-091-041100-
SOUTHEAST ILLINOIS

CITY           SKY/WX    TMP DP  RH WIND       PRES   REMARKS
LAWRENCEVILLE  CLEAR     64  63  96 N5        29.94S FOG
FLORA*         CLEAR     63  62  98 CALM      29.95S FOG
FAIRFIELD*     CLEAR     65  65  98 CALM      29.93R FOG
HARRISBURG*    CLEAR     67  67 100 CALM      29.94S FOG
ROBINSON*      CLEAR     62  62  98 NW5       29.95R FOG
CARMI*         CLEAR     67  63  85 N5        29.93R FOG
$$

ABBREVIATIONS USED IN REMARKS
   TC - TEMPERATURE IN CELSIUS
  WCI - WIND CHILL INDEX
   HX - HEAT INDEX
  VSB - VISIBILITY
$$



USA.gov is the U.S. government's official web portal to all federal, state and local government web resources and services.